Location: Newark
(42.7133°N, 87.7910°W)
Time: 22:31:24
(UTC+00:00)

Tiros 1 - Pass Details

Date: 23 September 2019
Orbit: 630 x 664 km, 48.4° (Epoch: 17 October)

Event Time Altitude Azimuth Distance (km) Brightness Sun altitude
Rises 00:58:41 0° 287° (WNW) 2,933 12.6 -13.6°
Reaches altitude 10° 01:01:40 10° 268° (W) 2,015 11.0 -14.1°
Maximum altitude 01:04:43 18° 226° (SW) 1,570 9.5 -14.6°
Drops below altitude 10° 01:07:45 10° 185° (S) 1,999 9.6 -15.2°
Enters shadow 01:10:02 - 168° (SSE) 2,679 10.1 -15.6°
Sets 01:10:41 0° 165° (SSE) 2,900 - -15.7°
